Погода в Томске

Погода в Томске : погода сейчас, прогноз погоды и архив. Всё, что Вы хотите узнать о погоде в Томске!

Хотите узнать прогноз погоды в Томске? Тогда Вам сюда: Погода в Томске

Поиск расширенной информации на нашем сайте:

Другие новости

Новости СМИ2

Главная страница сайта

Новости сайта

02.10.2013

Напоминаем, что на нашем новом сайте вы можете получить высокодетализированные прогнозы погоды по пунктам России, СНГ и мира (включающие важные для авиации метеовеличины, такие как направление и скорость ветра, видимость, явления погоды, количество и форма облачности, нижняя и верхняя граница облачности), а также ознакомиться с разнообразными материалами по авиационной метеорологии и подборкой полезных ссылок на эту тему.

Сайт Метеоцентр.Азия посвящён разработке технологий оптимизации авиаметеорологического обслуживания, включая проектирование и перспективное создание нескольких автоматизированных авиаметеорологических систем:
- система выпуска высокодетальных прогностических карт явлений погоды для нижнего воздушного пространства по России и ближнему зарубежью;
- система верификации прогнозов TAF (выпускаемых синоптиками официальных АМСГ РФ и ближнего зарубежья) и AUTOTAF (выпускаемых сайтом Метеоцентр.Азия) - выявление ошибок, онлайн-сопоставление с фактической погодой METAR, автоматическое внесение коррективов в прогнозы при резком отклонении фактической погоды от прогноза, подсчёт оправдываемости прогнозов по элементам и в целом;
- система обработки, анализа и отображения авиаметеорологической информации для применения провайдерами метеорологической информации.


Погода в Томске - сегодня

Время (UTC), дата Ветер
(°,м/с) 
Видим.   Явления Облачность Т
(°С)
Тd
(°С)
f(%) Тe
(°С)
Pmin
(гПа)
dP
(гПа)
Po
(мм)
O2
(г/м3)
Тmin Tmax R s Состояние
почвы
06 24.05.17 230 (ЮЗ) 20000 м    4/4 1000 м 
[Sc]
+22.6 +8.2 40 +23  1001.4  2.4  739  274           
09 24.05.17 240 (ЮЗ) 20000 м    ясно 
+24.2 +4.1 27 +24  1002.4  740  273           
12 24.05.17 250 (З) 2{11}  20000 м    4/0 верхняя 
[Ci fib]
+23.3 +5.3 31 +23  1001.9  -0.4  740  274    +24.7       
15 24.05.17 250 (З) 20000 м    10/0 средняя, верхняя 
[As op|Ci fib]
+17.7 +6.5 48 +19  1001.5  -0.8  739  279           
18 24.05.17 270 (З) 20000 м  в посл. час ливневой дождь  10/6 800 м кучево-дожд., средняя 
[Cb cap|As op]
+11 +9.2 89 +12  1003.3  1.4  740  285           
21 24.05.17 230 (ЮЗ) 20000 м  ливневой дождь  10/10 400 м кучево-дожд. 
[Cb cap]
+9.9 +9 94 +11  1004.9  1.5  741  287           
00 25.05.17 260 (З) 20000 м  {ливн. осадки}  8/6 600 м кучево-дожд., средняя 
[Cb cap|As op]
+7.7 +4.4 80 +9  1007.9  2.8  743  291  +7.7      влажная 
03 25.05.17 250 (З) 20000 м    9/9 700 м 
[Sc]
+10.3 +2 56 +10  1009.7  745  289  +7.4         
06 25.05.17 210 (ЮЗ) 20000 м  слаб. ливневой дождь  8/8 600 м кучево-дожд. 
[Cb cap]
+8.8 +5.4 79 +10  1010.4  0.6  745  290           
09 25.05.17 250 (З) 20000 м  {ливн. осадки}  9/9 600 м кучево-дожд. 
[Cb cap]
+13.4 +1 43 +14  1010.7  0.5  746  286           
12 25.05.17 250 (З) 20000 м  {ливн. осадки}  8/0 
[Sc]
+13.6 -1.8 34 +14  1011.6  0.9  746  287    +13.9  0.9     
15 25.05.17 120 (ЮВ) 20000 м    8/0 средняя 
[Ac trans]
+10 +0.2 50 +11  1010.7  -1.1  745  290           
18 25.05.17 050 (СВ) н/о    н/о 
+11.1 +1.2 50 +12  1007.4  -3.1  743  287           
21 25.05.17 240 (ЮЗ) 20000 м  {ливн. осадки}  10/10 660 м 
[Sc]
+5.9 +4.7 92 +7  1009.6  1.9  744  293           
00 26.05.17 250 (З) 20000 м  в посл. час ливневой дождь  10/10 300 м кучево-дожд. 
[Cb cap]
+4.9 +2.6 85 +5  1012.3  2.6  746  295  +4.8      влажная 
03 26.05.17 260 (З) н/о    н/о 
+6.1 +1.5 72 +6  1015.9  3.6  749  295           
06 26.05.17 260 (З) 20000 м  слаб. ливневой дождь  9/9 660 м кучево-дожд. 
[Cb cap]
+9 +1.8 61 +9  1018.8  751  293           
09 26.05.17 250 (З) 20000 м  {ливн. осадки}  8/8 960 м 
[Sc diur, vesp]
+9.9 -0.5 48 +10  1020.1  1.3  752  293           
12 26.05.17 250 (З) 20000 м  {ливн. осадки}  8/8 600 м 
[Sc]
+10.7 -0.7 45 +11  1021.1  1.1  753  292    +11.8  0.0     
15 26.05.17 350 (С) 20000 м    6/6 600 м 
[Sc]
+7.5 +2.5 71 +7  1024  2.7  755  296           
18 26.05.17 тихо ()   20000 м    ясно 
+3.1 +0.2 81 +3  1026.4  757  301           
21 26.05.17 тихо ()   20000 м    ясно 
+1.5 +0.7 94 +2  1027.8  1.3  758  304           
00 27.05.17 тихо ()   20000 м    8/0 средняя, верхняя 
[Ac trans|Ci fib]
+2.6 +2 96 +3  1028.6  0.9  758  302  +0.6        влажная 
03 27.05.17 090 (В) 20000 м    1/0 верхняя 
[Ci fib]
+9.9 -0.7 48 +11  1027.7  -0.4  758  295           
06 27.05.17 160 (Ю) 20000 м    10/0 верхняя 
[Ci fib]
+13.1 -0.3 40 +14  1025.1  -2.5  756  291           
Время (UTC), дата Ветер
(°,м/с) 
Видим.   Явления Облачность Т
(°С)
Тd
(°С)
f(%) Тe
(°С)
Pmin
(гПа)
dP
(гПа)
Po
(мм)
O2
(г/м3)
Тmin Tmax R s Состояние
почвы

Для получения пояснительной информации подведите курсор к названию столбца.

ПОГОДА в Томске - архив

Всё, что Вы хотите узнать о погоде в Томске - удобно и подробно!

Выберите нужную дату (начиная с 1 января 2015* года) и нажмите кнопку "Найти".
Будут отображены архивные сводки погоды по пункту Томск, начиная с указанной даты.


Отображать данные в формате CSV (для использования в таблицах Excel)


Внимание! Наш архив погоды предназначен исключительно для личного некоммерческого использования в познавательных целях. Если Вам необходимы официальные справки о состоянии погоды (для производственных, юридических, коммерческих и т.п. целей), обращайтесь в органы Росгидромета.

*Примечание: данная дата относится к архиву по метеостанциям СССР (Россия, СНГ, Балтия).
Архив по метеостанциям Зарубежной Европы и Азии (кроме Китая) хранится 10 дней, по другим регионам земного шара (Китай, Африка, Америка, Австралия, Океания) - 1 день.

Томск - район местоположения метеостанции


Название, широта, долгота, высота метеостанции:
Томск 56.5°ш. 84.9°д. 139 м над ур. моря [Российская Федерация]

Дополнительная информация

В oтличие oт бoльшинства пoгoдных сайтoв мы публикуем пoдрoбную метеoинфoрмацию в детальнoм прoфессиoнальнoм фoрмате.

Характеристики температуры и влажнoсти вoздуха измеряются на высoте 2 м в тени вдали oт зданий и деревьев.
Скoрoсть ветра измеряется на высoте 10 м (на урoвне рoста челoвека скoрoсть ветра ниже в 1.5-2 раза). Если метеoстанция нахoдится в гoрoде или в лесу, тo скoрoсть ветра занижена на 2-4 м/с пo сравнению с oткрытым местoм. Скoрoсть ветра над акватoриями крупных рек и oзёр, а также на вершинах хoлмoв на 2-5 м/с выше, чем в oбычных услoвиях.
Атмoсфернoе давление в разных тoчках местнoсти мoжет значительнo oтличаться oт давления на метеoстанции, в зависимoсти oт услoвий рельефа (при пoдъёме на 10 м давление пoнижается примернo на 1 мм рт.ст.).